x

Chambers Island, Wi (cbrw3) Weather Station

1:40pm - Mon 26th Jan 2015 All times are CST. -6 hours from GMT.

  • Wind
    2mph, 9mph gusts
  • Air Temp 24°f
  • Sea Pressure 1011.5mb
  • Chambers Island, Wi
  • Chambers Island, Wi

More Historic Weather Station data

Upgrade to MSW Pro to gain access to the past 30 days of data for over 8000 Wavebouys and Weather Stations around the globe.

Join Pro

Comparision Forecast

View Surf forecast
   
Mon 01/26 1:40pm 2 9 mph 1011.5mb 24f
1:30pm 5 10 mph 1011.5mb 24f
1:20pm 3 9 mph 1011.5mb 25f
1:10pm 6 10 mph 1011.5mb 24f
1:00pm 6 9 mph 1011.9mb 24f
12:40pm 7 10 mph 1012.2mb 24f
12:30pm 5 10 mph 1012.2mb 24f
12:20pm 5 8 mph 1012.2mb 23f
12:10pm 5 9 mph 1012.5mb 23f
12:00pm 6 9 mph 1012.5mb 23f
11:40am 5 8 mph 1012.9mb 24f
11:30am 3 8 mph 1012.9mb 24f
11:20am 5 11 mph 1012.9mb 24f
11:10am 5 10 mph 1012.9mb 23f
11:00am 5 13 mph 1012.9mb 23f
10:40am 6 9 mph 1012.5mb 22f
10:30am 5 10 mph 1012.5mb 22f
10:20am 5 9 mph 1012.9mb 22f
10:10am 6 10 mph 1012.9mb 21f
10:00am 3 7 mph 1013.2mb 21f
9:40am 3 7 mph 1013.2mb 20f
9:30am 2 8 mph 1013.2mb 20f
9:20am 3 6 mph 1013.2mb 19f
9:10am 2 6 mph 1013.2mb 18f
9:00am 2 5 mph 1013.2mb 17f
8:40am 1 3 mph 1013.2mb 15f
8:30am  -  1 mph 1013.2mb 15f
8:20am  -  1 mph 1013.5mb 15f
8:10am  -  3 mph 1013.5mb 12f
8:00am 2
mph
1013.5mb 10f
7:40am  -  1 mph 1013.9mb 9f
7:30am  -  2 mph 1013.5mb 9f
7:20am  -  mph 1013.9mb 8f
7:10am  -  mph 1013.9mb 8f
7:00am  -  2 mph 1014.2mb 9f
6:40am 1 2 mph 1014.6mb 8f
6:30am 2
mph
1014.2mb 8f
6:20am  -  mph 1014.2mb 7f
6:10am  -  1 mph 1014.2mb 7f
6:00am  -  1 mph 1014.2mb 7f
5:40am  -  mph 1014.2mb 6f
5:30am  -  mph 1014.6mb 6f
5:20am  -  mph 1014.6mb 6f
5:10am  -  mph 1014.6mb 6f
5:00am  -  mph 1014.9mb 7f
4:40am  -  mph 1014.9mb 6f
4:30am  -  mph 1014.9mb 6f
4:20am  -  mph 1014.9mb 6f
4:10am  -  mph 1014.9mb 6f
4:00am  -  mph 1014.9mb 6f
3:40am  -  mph 1015.2mb 6f
3:30am  -  mph 1015.2mb 6f
3:20am  -  2 mph 1015.6mb 7f
3:10am  -  1 mph 1015.6mb 6f
3:00am  -  2 mph 1015.6mb 7f
2:40am  -  mph 1015.6mb 7f
2:30am  -  mph 1015.9mb 7f
2:20am  -  mph 1015.9mb 7f
2:10am  -  mph 1015.9mb 7f
2:00am  -  mph 1015.9mb 7f
1:40am  -  1 mph 1016.3mb 8f
1:30am  -  2 mph 1016.3mb 8f
1:20am  -  1 mph 1016.6mb 7f
1:10am  -  mph 1016.6mb 7f
1:00am  -  mph 1016.6mb 5f
12:40am  -  mph 1016.9mb 6f
12:30am  -  mph 1016.9mb 6f
12:20am  -  2 mph 1016.9mb 8f
12:10am  -  1 mph 1016.9mb 7f
12:00am  -  2 mph 1017.3mb 8f
Sun 01/25 11:40pm  -  2 mph 1017.3mb 9f
11:30pm  -  2 mph 1017.6mb 10f
11:20pm 2 3 mph 1017.6mb 11f
11:10pm  -  2 mph 1017.6mb 10f
11:00pm  -  mph 1017.6mb 9f
10:40pm  -  mph 1017.6mb 8f
10:30pm  -  1 mph 1017.6mb 8f
10:20pm 1
mph
1017.6mb 8f
10:10pm  -  mph 1017.6mb 7f
10:00pm  -  mph 1017.9mb 9f
9:40pm 2 3 mph 1018.3mb 10f
9:30pm  -  5 mph 1018.6mb 10f
9:20pm 2 5 mph 1018.6mb 7f
9:10pm  -  1 mph 1019mb 7f
9:00pm  -  1 mph 1019.3mb 8f
8:40pm  -  mph 1019.3mb 8f
8:30pm  -  mph 1019.3mb 7f
8:20pm  -  mph 1019.3mb 7f
8:10pm  -  mph 1019.3mb 8f
8:00pm  -  mph 1019.3mb 8f
7:40pm  -  mph 1019mb 9f
7:30pm  -  mph 1019mb 7f
7:20pm  -  mph 1019mb 9f
7:10pm  -  mph 1018.6mb 8f
7:00pm  -  mph 1018.6mb 8f
6:40pm  -  mph 1018.6mb 9f
6:30pm  -  mph 1018.6mb 10f
6:20pm  -  3 mph 1018.6mb 10f
6:10pm  -  2 mph 1018.6mb 10f
6:00pm  -  mph 1018.6mb 11f
5:40pm  -  1 mph 1018.6mb 12f
5:30pm  -  1 mph 1018.6mb 13f
5:20pm  -  2 mph 1018.6mb 13f
5:10pm 1 5 mph 1018.3mb 13f
5:00pm 2 5 mph 1018.3mb 14f
4:40pm 3 7 mph 1018.3mb 16f
4:30pm 5 7 mph 1018.6mb 16f
4:20pm 5 9 mph 1018.6mb 17f
4:10pm 6 8 mph 1018.6mb 17f
4:00pm 8 9 mph 1018.3mb 17f
3:40pm 7 11 mph 1018.3mb 17f
3:30pm 8 11 mph 1018.3mb 17f
3:20pm 8 11 mph 1018.3mb 17f
3:10pm 8 13 mph 1018.3mb 17f
3:00pm 9 13 mph 1017.9mb 17f
2:40pm 10 13 mph 1018.3mb 17f
2:30pm 10 15 mph 1017.9mb 17f
2:20pm 11 16 mph 1017.9mb 17f
2:10pm 11 15 mph 1017.9mb 17f
2:00pm 13 17 mph 1017.9mb 17f
1:50pm 11 17 mph 1017.9mb 17f
1:40pm 15 16 mph 1017.9mb 18f
1:30pm 14 17 mph 1018.3mb 19f
1:20pm 13 15 mph 1018.3mb 19f
1:10pm 13 17 mph 1018.6mb 18f
1:00pm 15 17 mph 1018.3mb 18f
12:50pm 14 18 mph 1018.3mb 17f
12:40pm 14 17 mph 1018.6mb 19f
12:30pm 15 17 mph 1018.6mb 17f
12:20pm 16 17 mph 1018.6mb 18f
12:10pm 16 18 mph 1018.3mb 18f
12:00pm 15 18 mph 1018.3mb 17f
11:50am 16 17 mph 1018.3mb 17f
11:40am 16 18 mph 1018.3mb 17f
11:30am 14 17 mph 1018.3mb 17f
11:20am 15 17 mph 1018.3mb 17f
11:10am 16 20 mph 1018.3mb 17f
11:00am 17 20 mph 1017.9mb 17f
10:50am 18 20 mph 1017.9mb 16f
10:40am 17 21 mph 1017.9mb 16f
10:30am 18 21 mph 1017.9mb 16f
10:20am 18 21 mph 1017.6mb 16f
10:10am 18 22 mph 1017.9mb 16f
10:00am 18 22 mph 1017.6mb 16f
9:50am 20 23 mph 1017.6mb 16f
9:40am 20 23 mph 1017.3mb 16f
9:30am 21 24 mph 1017.3mb 15f
9:20am 21 24 mph 1016.9mb 15f
9:10am 23 25 mph 1016.9mb 15f
9:00am 22 25 mph 1016.6mb 15f
8:50am 21 24 mph 1016.6mb 15f
8:40am 21 25 mph 1016.6mb 15f
8:30am 21 23 mph 1016.3mb 15f
8:20am 21 24 mph 1016.3mb 15f
8:10am 21 24 mph 1016.3mb 15f
8:00am 22 25 mph 1016.3mb 14f
7:50am 21 26 mph 1015.9mb 14f
7:40am 20 25 mph 1015.9mb 14f
7:30am 23 28 mph 1015.6mb 14f
7:20am 24 26 mph 1015.6mb 14f
7:10am 20 26 mph 1015.2mb 14f
7:00am 18 23 mph 1015.6mb 14f
6:50am 17 23 mph 1015.6mb 14f
6:40am 18 24 mph 1015.2mb 15f
6:30am 18 23 mph 1015.2mb 15f
6:20am 18 23 mph 1014.9mb 15f
6:10am 17 24 mph 1014.9mb 15f
6:00am 17 22 mph 1014.6mb 15f
5:50am 20 23 mph 1014.2mb 16f
5:40am 21 25 mph 1013.9mb 16f
5:30am 22 28 mph 1013.9mb 16f
5:20am 22 26 mph 1013.5mb 17f
5:10am 21 25 mph 1013.9mb 17f
5:00am 23 25 mph 1013.5mb 17f
4:50am 21 24 mph 1013.5mb 17f
4:40am 18 23 mph 1013.5mb 17f
4:30am 18 24 mph 1013.2mb 18f
4:20am 20 25 mph 1013.2mb 18f
4:10am 21 25 mph 1013.2mb 18f
4:00am 18 23 mph 1012.9mb 18f
3:50am 21 25 mph 1012.9mb 18f
3:40am 20 25 mph 1012.5mb 19f
3:30am 20 24 mph 1012.2mb 19f
3:20am 21 24 mph 1012.2mb 19f
3:10am 20 24 mph 1012.2mb 20f
3:00am 21 24 mph 1011.9mb 20f
2:50am 21 24 mph 1011.9mb 20f
2:40am 20 25 mph 1011.9mb 20f
2:30am 20 23 mph 1011.9mb 20f
2:20am 20 25 mph 1011.9mb 20f
2:10am 20 24 mph 1011.9mb 20f
2:00am 20 25 mph 1011.5mb 20f
1:50am 22 24 mph 1011.2mb 21f
1:40am 20 24 mph 1011.2mb 21f
1:30am 20 22 mph 1010.8mb 21f
1:20am 18 22 mph 1010.8mb 21f
1:10am 18 23 mph 1010.5mb 21f
1:00am 18 21 mph 1010.5mb 21f
12:50am 18 21 mph 1010.5mb 21f
12:40am 18 22 mph 1010.2mb 21f
12:30am 17 21 mph 1010.2mb 21f
12:20am 18 21 mph 1009.8mb 21f
12:10am 17 22 mph 1009.8mb 21f
12:00am 17 21 mph 1009.8mb 21f
Sat 01/24 11:50pm 15 21 mph 1009.8mb 21f
11:40pm 17 20 mph 1009.8mb 21f
11:30pm 17 22 mph 1009.5mb 21f
11:20pm 17 21 mph 1009.5mb 21f
11:10pm 18 21 mph 1009.1mb 21f
11:00pm 18 22 mph 1009.1mb 21f
10:50pm 17 23 mph 1009.1mb 21f
10:40pm 18 25 mph 1008.8mb 21f
10:30pm 21 23 mph 1008.8mb 21f
10:20pm 21 25 mph 1008.8mb 21f
10:10pm 21 25 mph 1008.5mb 21f
10:00pm 20 23 mph 1008.5mb 21f
9:50pm 20 24 mph 1008.5mb 21f
9:40pm 23 26 mph 1008.1mb 21f
9:30pm 22 26 mph 1007.8mb 21f
9:20pm 23 26 mph 1007.8mb 22f
9:10pm 23 26 mph 1007.5mb 22f
9:00pm 21 25 mph 1007.8mb 22f
8:50pm 20 28 mph 1007.8mb 23f
8:40pm 23 26 mph 1007.5mb 23f
8:30pm 24 28 mph 1007.5mb 23f
8:20pm 23 26 mph 1007.1mb 23f
8:10pm 23 26 mph 1007.1mb 24f
8:00pm 21 25 mph 1007.1mb 24f
7:50pm 21 24 mph 1007.1mb 24f
7:40pm 23 25 mph 1006.8mb 24f
7:30pm 21 24 mph 1006.8mb 24f
7:20pm 21 26 mph 1006.8mb 24f
7:10pm 23 26 mph 1006.4mb 25f
7:00pm 23 25 mph 1006.4mb 25f
6:50pm 21 24 mph 1006.4mb 25f
6:40pm 21 24 mph 1006.1mb 26f
6:30pm 24 25 mph 1006.1mb 26f
6:20pm 22 25 mph 1005.8mb 26f
6:10pm 23 25 mph 1005.4mb 26f
6:00pm 23 25 mph 1005.4mb 27f
5:50pm 21 25 mph 1005.1mb 27f
5:40pm 21 24 mph 1005.1mb 28f
5:30pm 21 24 mph 1005.1mb 28f
5:20pm 21 24 mph 1004.7mb 28f
5:10pm 20 22 mph 1004.7mb 29f
5:00pm 21 24 mph 1004.7mb 29f
4:50pm 22 24 mph 1004.4mb 29f
4:40pm 20 25 mph 1004.1mb 29f
4:30pm 22 25 mph 1003.7mb 29f
4:20pm 23 26 mph 1003.4mb 29f
4:10pm 22 24 mph 1003.4mb 30f
4:00pm 20 25 mph 1003mb 30f
3:50pm 21 23 mph 1002.7mb 31f
3:40pm 20 23 mph 1002.7mb 31f
3:30pm 17 22 mph 1002.4mb 32f
3:20pm 16 20 mph 1002.4mb 33f
3:10pm 14 17 mph 1002mb 33f
3:00pm 11 14 mph 1002mb 33f
2:50pm 7 10 mph 1001.7mb 34f
2:40pm 7 13 mph 1001.4mb 34f
2:30pm 9 14 mph 1001.4mb 34f
2:20pm 6 10 mph 1001mb 39f
2:10pm 1 3 mph 1001mb 41f
2:00pm  -  3 mph 1001mb 41f
1:50pm 1 5 mph 1001mb 40f
1:40pm  -  1 mph 1001mb 40f
1:30pm  -  mph 1001mb 39f
1:20pm  -  mph 1001mb 38f
1:10pm  -  1 mph 1001.4mb 39f
1:00pm  -  mph 1001.4mb 40f
12:50pm  -  1 mph 1001.4mb 39f
12:40pm  -  1 mph 1001mb 39f
12:30pm  -  3 mph 1001.4mb 38f
12:20pm 2 8 mph 1001.4mb 37f
12:10pm 9 11 mph 1001.4mb 37f
12:00pm 6 13 mph 1001.4mb 39f
11:50am 3 8 mph 1001.7mb 39f
11:40am 3 9 mph 1001.7mb 39f
11:30am 6 10 mph 1001.7mb 40f
11:20am 5 8 mph 1001.7mb 42f
11:10am 5 6 mph 1001.7mb 41f
11:00am 5 8 mph 1002mb 40f
10:50am 5 8 mph 1002mb 39f
10:40am 5 7 mph 1002.4mb 38f
10:30am 3 8 mph 1002.4mb 37f
10:20am 3 9 mph 1002.4mb 37f
10:10am 5 13 mph 1002.4mb 37f
10:00am 7 10 mph 1002mb 37f
9:50am 7 10 mph 1002mb 37f
9:40am 6 9 mph 1002mb 36f
9:30am 5 11 mph 1002.4mb 36f
9:20am 6 9 mph 1002mb 36f
9:10am 5 8 mph 1002.4mb 35f
9:00am 5 9 mph 1002.4mb 35f
8:50am 5 10 mph 1002.4mb 35f
8:40am 5 10 mph 1002.4mb 35f
8:30am 6 10 mph 1002.4mb 34f
8:20am 3 9 mph 1002.7mb 34f
8:10am 6 9 mph 1002.7mb 33f
8:00am 6 9 mph 1002.7mb 33f
7:50am 2 7 mph 1002.7mb 32f
7:40am 5 10 mph 1002.7mb 32f
7:30am 7 9 mph 1002.7mb 32f
7:20am 6 8 mph 1002.7mb 32f
7:10am 6 10 mph 1003mb 32f
7:00am 5 7 mph 1003mb 31f
6:50am 6 9 mph 1003mb 31f
6:40am 6 11 mph 1003mb 32f
6:30am 6 11 mph 1003mb 32f
6:20am 7 11 mph 1003mb 32f
6:10am 5 13 mph 1003.4mb 32f
6:00am 7 11 mph 1003.4mb 33f
5:50am 8 11 mph 1003mb 33f
5:40am 7 11 mph 1003mb 33f
5:30am 7 10 mph 1003mb 33f
5:20am 7 11 mph 1003mb 33f
5:10am 7 11 mph 1003mb 33f
5:00am 7 13 mph 1003mb 33f
4:50am 7 11 mph 1002.7mb 33f
4:40am 7 11 mph 1003mb 34f
4:30am 5 10 mph 1003mb 34f
4:20am 6 11 mph 1003mb 34f
4:10am 7 10 mph 1003mb 34f
4:00am 7 10 mph 1003mb 34f
3:50am 5 11 mph 1003mb 34f
3:40am 6 10 mph 1003.4mb 34f
3:30am 5 8 mph 1003.4mb 34f
3:20am 6 10 mph 1003.4mb 34f
3:10am 5 9 mph 1003.7mb 34f
3:00am 2 10 mph 1003.7mb 34f
2:50am 3 8 mph 1003.7mb 34f
2:40am 2 8 mph 1004.1mb 33f
2:30am 3 8 mph 1004.1mb 33f
2:20am 3 10 mph 1004.1mb 33f
2:10am 7 11 mph 1004.4mb 33f
2:00am 5 8 mph 1004.4mb 32f
1:50am 3 8 mph 1004.4mb 32f
1:40am 5 9 mph 1004.4mb 32f
1:30am 5 9 mph 1004.4mb 32f
1:20am 5 9 mph 1004.4mb 32f
1:10am 6 10 mph 1004.4mb 32f
1:00am 6 10 mph 1004.4mb 31f
12:50am 6 11 mph 1004.4mb 31f
12:40am 8 11 mph 1004.7mb 31f
12:30am 8 13 mph 1004.4mb 32f
12:20am 8 13 mph 1004.7mb 32f
12:10am 8 13 mph 1004.7mb 32f
12:00am 7 13 mph 1004.7mb 32f
Fri 01/23 11:50pm 6 13 mph 1004.7mb 32f
11:40pm 8 13 mph 1005.1mb 32f
11:30pm 8 11 mph 1005.1mb 32f
11:20pm 7 11 mph 1005.1mb 32f
11:10pm 6 11 mph 1005.4mb 32f
11:00pm 8 11 mph 1005.4mb 32f
10:50pm 7 11 mph 1005.4mb 32f
10:40pm 6 13 mph 1005.4mb 32f
10:30pm 6 11 mph 1005.8mb 32f
10:20pm 7 11 mph 1005.8mb 32f
10:10pm 6 14 mph 1005.8mb 32f
10:00pm 6 13 mph 1006.1mb 32f
9:50pm 7 13 mph 1006.4mb 32f
9:40pm 7 13 mph 1006.4mb 32f
9:30pm 8 11 mph 1006.8mb 32f
9:20pm 7 11 mph 1006.8mb 32f
9:10pm 8 13 mph 1006.8mb 32f
9:00pm 8 13 mph 1007.1mb 32f
8:50pm 7 13 mph 1007.5mb 32f
8:40pm 6 11 mph 1007.5mb 33f
8:30pm 7 11 mph 1007.5mb 33f
8:20pm 7 13 mph 1007.8mb 33f
8:10pm 7 10 mph 1007.8mb 33f
8:00pm 6 13 mph 1007.8mb 33f
7:50pm 7 11 mph 1007.8mb 33f
7:40pm 6 10 mph 1008.1mb 33f
7:30pm 5 11 mph 1008.1mb 33f
7:20pm 8 14 mph 1008.1mb 33f
7:10pm 7 15 mph 1008.1mb 33f
7:00pm 9 14 mph 1008.5mb 33f
6:50pm 9 16 mph 1008.1mb 33f
6:40pm 10 14 mph 1008.1mb 33f
6:30pm 8 15 mph 1008.5mb 33f
6:20pm 9 16 mph 1008.1mb 33f
6:10pm 8 16 mph 1008.1mb 33f
6:00pm 9 15 mph 1008.5mb 33f
5:50pm 8 16 mph 1008.5mb 33f
5:40pm 8 14 mph 1008.5mb 33f
5:30pm 8 10 mph 1008.8mb 32f
5:20pm 8 14 mph 1008.8mb 32f
5:10pm 8 14 mph 1008.8mb 31f
5:00pm 9 15 mph 1008.8mb 31f
4:50pm 8 13 mph 1008.8mb 31f
4:40pm 9 16 mph 1008.5mb 31f
4:30pm 9 16 mph 1008.5mb 31f
4:20pm 8 16 mph 1008.5mb 31f
4:10pm 8 17 mph 1008.5mb 31f
4:00pm 10 18 mph 1008.1mb 31f
3:50pm 9 17 mph 1008.1mb 31f
3:40pm 10 21 mph 1008.5mb 31f
3:30pm 11 18 mph 1008.5mb 31f
3:20pm 10 22 mph 1008.5mb 30f
3:10pm 11 21 mph 1008.8mb 30f
3:00pm 13 20 mph 1008.8mb 30f
2:50pm 8 20 mph 1008.8mb 30f
2:40pm 9 17 mph 1008.8mb 30f
2:30pm 11 22 mph 1009.1mb 29f
2:20pm 10 18 mph 1009.5mb 30f
2:10pm 9 18 mph 1009.5mb 29f
2:00pm 8 18 mph 1009.5mb 29f
1:50pm 10 16 mph 1009.8mb 29f
1:40pm 11 18 mph 1009.8mb 29f
1:30pm 11 20 mph 1010.2mb 29f
1:20pm 9 20 mph 1010.2mb 29f
1:10pm 10 17 mph 1010.5mb 29f
1:00pm 9 18 mph 1010.8mb 28f
12:50pm 11 20 mph 1010.8mb 28f
12:40pm 10 16 mph 1011.2mb 28f
12:30pm 10 17 mph 1011.5mb 28f
12:20pm 10 20 mph 1011.5mb 28f
12:10pm 11 21 mph 1011.9mb 28f
12:00pm 10 20 mph 1012.2mb 29f
11:50am 10 20 mph 1012.2mb 29f
11:40am 11 20 mph 1012.5mb 29f
11:30am 11 22 mph 1012.5mb 29f
11:20am 13 22 mph 1012.5mb 28f
11:10am 10 20 mph 1012.5mb 28f
11:00am 13 21 mph 1012.9mb 28f
10:50am 13 24 mph 1012.9mb 28f
10:40am 11 24 mph 1013.2mb 28f
10:30am 11 26 mph 1013.2mb 28f
10:20am 10 25 mph 1013.2mb 27f
10:10am 14 23 mph 1013.5mb 27f
10:00am 10 21 mph 1013.5mb 27f
9:50am 11 23 mph 1013.5mb 27f
9:40am 13 21 mph 1013.5mb 27f
9:30am 10 18 mph 1013.9mb 27f
9:20am 10 22 mph 1013.9mb 27f
9:10am 14 26 mph 1013.5mb 27f
9:00am 16 24 mph 1013.9mb 27f
8:50am 15 23 mph 1013.9mb 26f
8:40am 8 23 mph 1014.2mb 26f
8:30am 11 22 mph 1014.2mb 26f
8:20am 13 22 mph 1014.2mb 26f
8:10am 13 23 mph 1014.6mb 26f
8:00am 14 23 mph 1014.9mb 27f
7:50am 14 23 mph 1014.9mb 27f
7:40am 13 24 mph 1014.9mb 27f
7:30am 13 22 mph 1015.2mb 27f
7:20am 14 23 mph 1014.9mb 27f
7:10am 10 18 mph 1015.2mb 27f
7:00am 11 21 mph 1015.2mb 27f
6:50am 11 18 mph 1015.6mb 27f
6:40am 9 23 mph 1015.9mb 27f
6:30am 13 21 mph 1015.9mb 27f
6:20am 14 21 mph 1015.9mb 27f
6:10am 13 21 mph 1016.3mb 27f
6:00am 13 21 mph 1016.3mb 27f
5:50am 11 22 mph 1016.3mb 27f
5:40am 11 20 mph 1016.6mb 27f
5:30am 10 23 mph 1016.9mb 27f
5:20am 11 18 mph 1016.9mb 27f
5:10am 10 21 mph 1016.6mb 27f
5:00am 11 20 mph 1016.9mb 27f
4:50am 9 20 mph 1017.3mb 27f
4:40am 11 21 mph 1016.9mb 27f
4:30am 10 18 mph 1017.3mb 27f
4:20am 10 18 mph 1017.3mb 26f
4:10am 11 18 mph 1017.6mb 26f
4:00am 11 22 mph 1017.6mb 26f
3:50am 9 20 mph 1018.3mb 26f
3:40am 13 21 mph 1018.3mb 26f
3:30am 10 20 mph 1018.6mb 26f
3:20am 11 18 mph 1018.6mb 26f
3:10am 10 22 mph 1018.6mb 26f
3:00am 11 23 mph 1019mb 26f
2:50am 14 21 mph 1019mb 26f
2:40am 10 25 mph 1019mb 26f
2:30am 11 20 mph 1019.3mb 26f
2:20am 10 25 mph 1019.3mb 26f
2:10am 9 18 mph 1019.6mb 26f
2:00am 10 21 mph 1019.6mb 26f
1:50am 13 22 mph 1019.6mb 26f
1:40am 10 22 mph 1019.6mb 25f
1:30am 11 17 mph 1020mb 25f
1:20am 11 22 mph 1020mb 25f
1:10am 11 20 mph 1020mb 25f
1:00am 11 22 mph 1020mb 25f
12:50am 10 18 mph 1020mb 24f
12:40am 9 21 mph 1020.3mb 24f
12:30am 10 15 mph 1021mb 23f
12:20am 8 16 mph 1021mb 23f
12:10am 9 17 mph 1021.3mb 22f
12:00am 10 20 mph 1021.3mb 22f
Thu 01/22 11:50pm 8 22 mph 1021.3mb 22f
11:40pm 9 22 mph 1021.3mb 22f
11:30pm 13 23 mph 1021.3mb 23f
11:20pm 15 22 mph 1021.3mb 23f
11:10pm 10 21 mph 1021.3mb 23f
11:00pm 11 22 mph 1021.3mb 23f
10:50pm 13 22 mph 1021.7mb 23f
10:40pm 10 22 mph 1022mb 23f
10:30pm 13 28 mph 1022mb 23f
10:20pm 14 23 mph 1022.4mb 23f
10:10pm 8 21 mph 1022.4mb 23f
10:00pm 10 18 mph 1022.4mb 23f
9:50pm 8 16 mph 1022.4mb 23f
9:40pm 8 18 mph 1022.7mb 23f
9:30pm 8 20 mph 1022.7mb 23f
9:20pm 10 21 mph 1023mb 23f
9:10pm 9 22 mph 1023.4mb 23f
9:00pm 7 17 mph 1023.4mb 23f
8:50pm 10 20 mph 1023.4mb 23f
8:40pm 10 17 mph 1023.4mb 23f